Location: Gleizolles
(44.4833°N, 6.7667°E)
Time: 14:09:43
(UTC+00:00)

deb Explorer IX - Pass Details

Date: 26 June 2024
Orbit: 510 x 878 km, 38.7° (Epoch: 21 July)

Event Time Altitude Azimuth Distance (km) Brightness Sun altitude
Rises 11:13:36 0° 267° (W) 2,963 ? 68.4°
Reaches altitude 10° 11:16:31 10° 248° (WSW) 2,126 ? 68.5°
Maximum altitude 11:19:50 18° 206° (SSW) 1,730 ? 68.6°
Drops below altitude 10° 11:23:23 10° 165° (SSE) 2,292 ? 68.7°
Sets 11:26:42 0° 147° (SSE) 3,292 ? 68.8°
